Location: Newark
(30.0333°N, 31.2167°E)
Time: 02:26:16
(UTC+00:00)

Vanguard 2 Rocket - All Passes

Search period start: 27 January 2020 00:00
Search period end: 06 February 2020 00:00
Orbit: 554 x 3326 km, 32.9° (Epoch: 26 January)

Date Brightness Start Highest point End Pass type
(mag) Time Alt. Az. Time Alt. Az. Time Alt. Az.
27 Jan - 01:18:28 10° SW 01:22:17 50° SSE 01:26:31 10° E visible
27 Jan - 03:30:53 10° W 03:35:07 65° N 03:41:32 10° E visible
27 Jan - 05:43:02 10° WNW 05:48:46 88° NNE 05:59:04 10° ESE daylight
27 Jan - 07:55:33 10° W 08:03:19 47° SSW 08:16:43 10° SE daylight
27 Jan - 10:11:25 10° WSW 10:19:26 20° SSW 10:30:04 10° S daylight
28 Jan - 00:19:30 10° SW 00:23:13 29° SSE 00:26:41 10° E night (unlit)
28 Jan - 02:31:48 10° W 02:35:45 72° N 02:40:54 10° ENE visible
28 Jan - 04:44:11 10° WNW 04:49:04 74° N 04:57:17 10° E daylight
28 Jan - 06:56:21 10° W 07:03:00 58° SSW 07:14:58 10° SE daylight
28 Jan - 09:10:29 10° W 09:18:24 26° SSW 09:30:01 10° SSE daylight
28 Jan - 23:20:41 10° SSW 23:23:59 18° SSE 23:26:49 10° ESE night (unlit)
29 Jan - 01:32:34 10° WSW 01:36:31 85° SSE 01:40:53 10° ENE visible
29 Jan - 03:45:17 10° WNW 03:49:32 64° N 03:55:58 10° E visible
29 Jan - 05:57:22 10° WNW 06:03:04 72° SSW 06:13:12 10° ESE daylight
29 Jan - 08:10:27 10° W 08:17:42 32° SSW 08:29:15 10° SSE daylight
29 Jan - 10:31:27 10° SW 10:34:05 11° SSW 10:36:55 10° SSW daylight
29 Jan - 22:22:24 10° S 22:24:31 12° SSE 22:26:24 10° SE night (unlit)
30 Jan - 00:33:11 10° WSW 00:37:23 55° SSE 00:41:17 10° E night (unlit)
30 Jan - 02:46:14 10° W 02:50:09 60° N 02:55:17 10° E visible
30 Jan - 04:58:30 10° WNW 05:03:24 89° S 05:11:39 10° ESE daylight
30 Jan - 07:10:57 10° W 07:17:22 40° SSW 07:28:08 10° SE daylight
30 Jan - 09:27:18 10° WSW 09:32:58 15° SSW 09:40:09 10° S daylight
30 Jan - 23:33:42 10° SW 23:38:14 35° SSE 23:41:52 10° E night (unlit)
31 Jan - 01:46:56 10° W 01:50:52 68° N 01:55:12 10° ENE visible
31 Jan - 03:59:38 10° WNW 04:03:55 74° NNE 04:10:26 10° E visible
31 Jan - 06:11:48 10° W 06:17:22 50° SSW 06:26:54 10° SE daylight
31 Jan - 08:26:09 10° WSW 08:32:13 20° SSW 08:40:43 10° SSE daylight
31 Jan - 22:34:09 10° SSW 22:38:53 24° SSE 22:42:27 10° E night (unlit)
01 Feb - 00:47:20 10° WSW 00:51:40 89° NNW 00:55:38 10° ENE night (unlit)
01 Feb - 03:00:39 10° WNW 03:04:34 61° N 03:09:43 10° E visible
01 Feb - 05:12:51 10° W 05:17:41 64° SSW 05:25:44 10° ESE daylight
01 Feb - 07:26:04 10° WSW 07:31:49 25° SSW 07:40:31 10° SSE daylight
01 Feb - 21:34:43 10° SSW 21:39:18 18° SSE 21:42:48 10° ESE night (unlit)
01 Feb - 23:47:28 10° WSW 23:52:30 63° SSE 23:56:23 10° E night (unlit)
02 Feb - 02:01:22 10° W 02:05:16 57° N 02:09:34 10° ENE visible
02 Feb - 04:13:57 10° WNW 04:18:15 84° SSW 04:24:47 10° ESE visible
02 Feb - 06:26:33 10° W 06:31:45 32° SSW 06:39:59 10° SE daylight
02 Feb - 08:45:11 10° SW 08:46:53 10° SSW 08:48:43 10° SSW daylight
02 Feb - 20:35:41 10° S 20:39:27 14° SSE 20:42:31 10° SE night (unlit)
02 Feb - 22:47:22 10° SW 22:53:13 43° SSE 22:57:17 10° E night (unlit)
03 Feb - 01:01:44 10° W 01:06:00 65° N 01:09:57 10° ENE visible
03 Feb - 03:14:58 10° WNW 03:18:56 74° NNE 03:24:10 10° E visible
03 Feb - 05:27:21 10° W 05:32:01 41° SSW 05:39:21 10° SE daylight
03 Feb - 07:42:28 10° SW 07:46:24 14° SSW 07:51:21 10° S daylight
03 Feb - 21:47:09 10° SW 21:53:44 32° SSE 21:58:07 10° E night (unlit)
04 Feb - 00:01:40 10° WSW 00:06:47 84° NNW 00:10:44 10° ENE night (unlit)
04 Feb - 02:15:47 10° WNW 02:19:41 60° N 02:24:01 10° E visible
04 Feb - 04:28:19 10° W 04:32:32 55° SSW 04:38:49 10° ESE daylight
04 Feb - 06:42:01 10° WSW 06:46:15 19° SSW 06:52:03 10° SSE daylight
04 Feb - 20:46:54 10° SSW 20:53:58 25° SSE 20:58:44 10° ESE night (unlit)
04 Feb - 23:01:14 10° WSW 23:07:30 71° SSE 23:11:44 10° ENE night (unlit)
05 Feb - 01:16:11 10° W 01:20:25 57° N 01:24:19 10° ENE visible
05 Feb - 03:29:18 10° WNW 03:33:15 78° SSW 03:38:29 10° ESE visible
05 Feb - 05:42:18 10° WSW 05:46:25 24° SSW 05:52:16 10° SSE daylight
05 Feb - 19:46:51 10° SSW 19:53:54 20° SSE 19:58:56 10° ESE visible
05 Feb - 22:00:30 10° SW 22:08:05 53° SSE 22:12:47 10° E night (unlit)
